Terug naar catalogus

STARLINK-34146

ActiefCommunicatieVLEO
NORAD 64098·PAYLOAD·🇺🇸 United States

Gelanceerd May 23, 2025 vanaf Vandenberg Space Force Base

Loading…

Volgende Passages (komende 24 uur)

TLE

VersSource: CelesTrak SupGP

Epoch: Sep 14, 2026, 23:08 UTC

1 64098C 25110C   26257.96437500  .00008225  00000+0  24295-3 0  2570
2 64098  53.1577 223.4286 0001312  91.1138 145.1539 15.34395191    14

Volg STARLINK-34146 in realtime met AllMySat

Download on the App Store